Location: Croydon
(51.3762°N, 0.0982°W)
Time: 02:29:07
(UTC+00:00)

Altair - Pass Details

Date: 21 November 2019
Orbit: 1502 x 1682 km, 47.2° (Epoch: 12 December)

Event Time Altitude Azimuth Distance (km) Brightness Sun altitude
Rises 07:17:13 0° 281° (W) 4,641 - -2.2°
Exits shadow 07:17:13 - 281° (W) 4,639 9.4 -2.2°
Reaches altitude 10° 07:20:18 10° 277° (W) 3,665 8.9 -1.8°
Maximum altitude 07:29:07 53° 204° (SSW) 1,824 8.1 -0.6°
Drops below altitude 10° 07:38:10 10° 131° (SE) 3,755 11.8 0.6°
Sets 07:41:22 0° 127° (SE) 4,763 13.9 1.0°
